Location: Asbacherhof
(48.8543°N, 10.7903°E)
Time: 23:01:10
(UTC+00:00)

Lacrosse 5 - Pass Details

Date: 26 May 2022
Orbit: 714 x 724 km, 57.0° (Epoch: 09 March)

Event Time Altitude Azimuth Distance (km) Brightness Sun altitude
Exits shadow 02:37:42 - 253° (WSW) 2,633 4.2 -6.6°
Reaches altitude 10° 02:38:49 10° 256° (WSW) 2,213 3.9 -6.5°
Maximum altitude 02:43:49 55° 334° (NNW) 870 2.4 -5.9°
Drops below altitude 10° 02:48:50 10° 52° (NE) 2,216 6.3 -5.3°
Sets 02:51:17 0° 57° (ENE) 3,137 7.7 -5.0°
